Regional Weather Roundup
Issued by NWS Green Bay, WI

Home | Current Version | Previous Version | Graphics & Text | Print | Product List | Glossary Off
Versions: 1 2 3 4 5 6 7 8 9 10 11 12 13 14 15 16 17 18 19 20 21 22 23 24 25 26 27 28 29 30 31 32 33 34 35 36 37 38 39 40 41 42 43 44 45 46 47 48 49 50

928
ASUS43 KGRB 080011
RWRGRB

NORTH-CENTRAL AND NORTHEAST WISCONSIN REGIONAL WEATHER ROUNDUP
NATIONAL WEATHER SERVICE GREEN BAY WI
600 PM CST SUN FEB 07 2016

WIZ005-009-010>012-018-019-080100-
NORTH CENTRAL WISCONSIN

CITY           SKY/WX    TMP DP  RH WIND       PRES   REMARKS
IRONWOOD       CLOUDY    34  32  93 SW6       29.48S
MANITOWISH WTR LGT SNOW  32  32 100 SW7       29.51R
ARBOR VITAE    LGT SNOW  34  32  92 SW5       29.52R
EAGLE RIVER    FLURRIES  33  32  98 SW3       29.52R
LAND O LAKES   FLURRIES  33  32  97 CALM      29.52R
RHINELANDER    CLOUDY    34  28  79 SW8       29.54R
PHILLIPS       LGT SNOW  32  30  92 SW7       29.53S
ANTIGO         CLOUDY    35  28  78 SW8       29.56S
TOMAHAWK       CLOUDY    33  28  81 SW3       29.55S
MERRILL        CLOUDY    36  28  71 W10       29.57S
$$

WIZ013-073-080100-
NORTHEAST WISCONSIN

CITY           SKY/WX    TMP DP  RH WIND       PRES   REMARKS
IRON MOUNTAIN  CLOUDY    35  30  82 S7        29.54R
MARINETTE      CLOUDY    37  28  70 SW5       29.60R
OCONTO         CLOUDY    37  30  74 S5        29.60S
$$

WIZ017-030-035>037-045-080100-
CENTRAL WISCONSIN

CITY           SKY/WX    TMP DP  RH WIND       PRES   REMARKS
MEDFORD        CLOUDY    34  27  76 SW8       29.56S
WAUSAU         CLOUDY    38  26  62 W13       29.56S
MOSINEE        CLOUDY    36  28  75 W9G17     29.59S
MARSHFIELD     CLOUDY    37  24  59 W12       29.58S
WISC RAPIDS    CLOUDY    38  23  55 W14       29.63R
STEVENS POINT  CLOUDY    36  25  65 SW7       29.60S
WAUPACA        MOCLDY    40  28  62 SW8       29.62R
SHAWANO        CLOUDY    39  29  68 CALM      29.60S
CLINTONVILLE   CLOUDY    36  30  80 S5        29.60S
WAUTOMA        PTCLDY    38  26  62 W10       29.64R
$$

WIZ038-039-048-051-080100-
FOX VALLEY

CITY           SKY/WX    TMP DP  RH WIND       PRES   REMARKS
NWS GREEN BAY  CLOUDY    37  30  75 S6        29.61S
APPLETON       MOCLDY    37  27  65 SW8       29.60R
OSHKOSH        PTCLDY    37  28  70 SW8       29.63R
FOND DU LAC    CLEAR     38  29  70 SW9       29.64S
$$

WIZ022-050-052-080100-
EAST CENTRAL WISCONSIN

CITY           SKY/WX    TMP DP  RH WIND       PRES   REMARKS
EPHRAIM        CLOUDY    37  30  77 SW6       29.60R
STURGEON BAY   CLOUDY    36  28  75 SW7       29.63S
MANITOWOC      CLOUDY    40  30  67 S5        29.64S
SHEBOYGAN      PTCLDY    37  29  72 SW12      29.65R
$$

LMZ563-521-522-541>543-080100-
LAKESHORE

STATION/POSITION TIME  TEMP    WIND        PRES    VSBY  WAVE
                       AIR SEA DIR/SP/G                  HT/PER
                 (UTC) (F)     (DEG/KT/KT) (MB)    (MI)  (FT/S)
SHEBOYGAN LKSHOR 0000   40     210/  9/ 11 1004.8S
KEWAUNEE LKSHORE 2300   38     220/  5/  8 1002.7R
NORTHPORT PIER   2300   39     210/  4/  7 1002.4R
CHAMBERS ISLAND  2300   37     180/  4/  8 1002.7R
MENOMINEE LKSHOR 2300   37     190/  6     1001.3R
$$




USA.gov is the U.S. government's official web portal to all federal, state and local government web resources and services.